Indiana, PA

12:25 PM EST on February 14, 2016 (GMT -0500)
Indiana County-Stewart

Weather History for KIDI - April, 2014

Change the Weather History Date:

Friday, April 25, 2014

  Actual Average Record
Temperature  
Mean Temperature 54 °F -  
Max Temperature 66 °F 63 °F 86 °F (1990)
Min Temperature 42 °F 38 °F 22 °F (1956)
Degree Days  
Heating Degree Days 11    
Growing Degree Days 4 (Base 50)    
Moisture  
Dew Point 35 °F    
Average Humidity 54    
Maximum Humidity 100    
Minimum Humidity 24    
Precipitation  
Precipitation 0.31 in - - ()
Sea Level Pressure  
Sea Level Pressure 29.79 in    
Wind  
Wind Speed 8 mph (SSE)    
Max Wind Speed 21 mph    
Max Gust Speed 29 mph    
Visibility 9 miles    
Events      
Averages and records for this station are not official NWS values.
T = Trace of Precipitation, MM = Missing Value Source: NWS Daily Summary

Daily Weather History Graph

Daily Weather History Graph

Search for Another Location

Airport or City:

Trip Planner

Search our weather history database for the weather conditions in past years. The results will help you decide how hot, cold, wet, or windy it might be!

Date:

Astronomy

Apr. 25, 2014 Rise Set
Actual Time 6:23 AM EDT 8:06 PM EDT
Civil Twilight 5:54 AM EDT 8:35 PM EDT
Nautical Twilight 5:18 AM EDT 9:10 PM EDT
Astronomical Twilight 4:41 AM EDT 9:48 PM EDT
Moon 4:11 AM EDT (4/25) 4:25 PM EDT (4/25)
Length of Visible Light 14h 41m
Length of Day
13h 42m
Waning Crescent, 15% of the Moon is Illuminated
Apr 25
Waning Crescent
Apr 29
New
May 6
First Quarter
May 14
Full
May 21
Last Quarter

Hourly Weather History & Observations

Time (EDT) Temp. Windchill Dew Point Humidity Pressure Visibility Wind Dir Wind Speed Gust Speed Precip Events Conditions
12:15 AM 42.8 °F 41.1 °F 28.4 °F 57% 29.97 in 10.0 mi East 3.5 mph - N/A   Scattered Clouds
12:35 AM 42.8 °F - 28.4 °F 57% 29.96 in 10.0 mi Calm Calm - N/A   Clear
1:15 AM 48.2 °F - 21.2 °F 34% 29.96 in 10.0 mi East 3.5 mph - N/A   Scattered Clouds
1:35 AM 50.0 °F - 21.2 °F 32% 29.94 in 10.0 mi ESE 4.6 mph - N/A   Mostly Cloudy
1:55 AM 51.8 °F - 19.4 °F 28% 29.93 in 10.0 mi SE 9.2 mph 16.1 mph N/A   Mostly Cloudy
2:15 AM 53.6 °F - 19.4 °F 26% 29.93 in 10.0 mi SE 6.9 mph - N/A   Scattered Clouds
2:35 AM 53.6 °F - 17.6 °F 24% 29.92 in 10.0 mi SE 11.5 mph 16.1 mph N/A   Clear
2:55 AM 53.6 °F - 17.6 °F 24% 29.91 in 10.0 mi ESE 10.4 mph - N/A   Clear
3:15 AM 53.6 °F - 17.6 °F 24% 29.90 in 10.0 mi ESE 10.4 mph 19.6 mph N/A   Clear
3:35 AM 53.6 °F - 17.6 °F 24% 29.90 in 10.0 mi SE 11.5 mph - N/A   Clear
3:55 AM 53.6 °F - 17.6 °F 24% 29.90 in 10.0 mi SE 11.5 mph 17.3 mph N/A   Clear
4:15 AM 53.6 °F - 19.4 °F 26% 29.90 in 10.0 mi SE 9.2 mph - N/A   Clear
4:35 AM 53.6 °F - 19.4 °F 26% 29.89 in 10.0 mi SE 10.4 mph - N/A   Clear
4:55 AM 53.6 °F - 19.4 °F 26% 29.89 in 10.0 mi SE 10.4 mph 16.1 mph N/A   Scattered Clouds
5:15 AM - - - N/A% 29.86 in - SE 12.7 mph - N/A   Unknown
5:35 AM 53.6 °F - 19.4 °F 26% 29.87 in 10.0 mi SSE 8.1 mph 17.3 mph N/A   Scattered Clouds
5:55 AM 51.8 °F - 19.4 °F 28% 29.87 in 10.0 mi SE 8.1 mph - N/A   Clear
6:15 AM 51.8 °F - 21.2 °F 30% 29.86 in 10.0 mi SE 9.2 mph 18.4 mph N/A   Clear
6:35 AM 51.8 °F - 21.2 °F 30% 29.85 in 10.0 mi SSE 9.2 mph - N/A   Clear
6:55 AM 51.8 °F - 21.2 °F 30% 29.85 in 10.0 mi SSE 10.4 mph 20.7 mph N/A   Clear
7:15 AM 53.6 °F - 21.2 °F 28% 29.84 in 10.0 mi SSE 9.2 mph 18.4 mph N/A   Clear
7:35 AM 53.6 °F - 21.2 °F 28% 29.84 in 10.0 mi SSE 11.5 mph 23.0 mph N/A   Clear
7:55 AM 53.6 °F - 23.0 °F 30% 29.83 in 10.0 mi SSE 13.8 mph 20.7 mph N/A   Clear
8:15 AM 55.4 °F - 24.8 °F 31% 29.82 in 10.0 mi SSE 19.6 mph 26.5 mph N/A   Clear
8:35 AM 55.4 °F - 24.8 °F 31% 29.81 in 10.0 mi SSE 13.8 mph 23.0 mph N/A   Clear
8:55 AM 57.2 °F - 26.6 °F 31% 29.80 in 10.0 mi SSE 13.8 mph 20.7 mph N/A   Clear
9:15 AM 59.0 °F - 26.6 °F 29% 29.80 in 10.0 mi SSE 15.0 mph 21.9 mph N/A   Clear
9:35 AM 60.8 °F - 26.6 °F 27% 29.78 in 10.0 mi SSE 13.8 mph 24.2 mph N/A   Clear
9:55 AM 60.8 °F - 26.6 °F 27% 29.77 in 10.0 mi SSE 15.0 mph 23.0 mph N/A   Clear
10:15 AM 62.6 °F - 28.4 °F 27% 29.76 in 10.0 mi SSE 13.8 mph 24.2 mph N/A   Clear
10:35 AM 62.6 °F - 28.4 °F 27% 29.76 in 10.0 mi SSE 11.5 mph 18.4 mph N/A   Clear
10:55 AM 64.4 °F - 28.4 °F 26% 29.75 in 10.0 mi SSE 13.8 mph 20.7 mph N/A   Clear
11:15 AM 64.4 °F - 30.2 °F 28% 29.77 in 10.0 mi SSW 16.1 mph 21.9 mph N/A   Clear
11:35 AM 64.4 °F - 30.2 °F 28% 29.77 in 10.0 mi South 15.0 mph 18.4 mph N/A   Clear
11:55 AM 64.4 °F - 32.0 °F 30% 29.76 in 10.0 mi South 10.4 mph 17.3 mph N/A   Clear
12:15 PM 66.2 °F - 32.0 °F 28% 29.75 in 10.0 mi South 9.2 mph - N/A   Clear
12:35 PM 66.2 °F - 33.8 °F 30% 29.74 in 10.0 mi South 12.7 mph 16.1 mph N/A   Scattered Clouds
12:55 PM 66.2 °F - 33.8 °F 30% 29.74 in 10.0 mi South 10.4 mph 16.1 mph N/A   Scattered Clouds
1:15 PM 66.2 °F - 35.6 °F 32% 29.73 in 10.0 mi South 15.0 mph 21.9 mph N/A   Mostly Cloudy
1:55 PM 60.8 °F - 44.6 °F 55% 29.73 in 10.0 mi SSW 12.7 mph - N/A   Mostly Cloudy
2:15 PM 60.8 °F - 46.4 °F 59% 29.72 in 10.0 mi South 9.2 mph - N/A   Scattered Clouds
2:35 PM 59.0 °F - 46.4 °F 63% 29.71 in 10.0 mi SSE 6.9 mph - N/A   Scattered Clouds
2:55 PM 59.0 °F - 46.4 °F 63% 29.69 in 10.0 mi SSE 4.6 mph - N/A   Mostly Cloudy
3:15 PM 60.8 °F - 46.4 °F 59% 29.68 in 10.0 mi SSE 6.9 mph - N/A   Mostly Cloudy
3:35 PM 60.8 °F - 46.4 °F 59% 29.68 in 10.0 mi SSE 9.2 mph - N/A   Overcast
3:55 PM 59.0 °F - 46.4 °F 63% 29.67 in 10.0 mi SSE 8.1 mph 16.1 mph N/A   Overcast
4:15 PM 59.0 °F - 44.6 °F 59% 29.66 in 10.0 mi South 5.8 mph - N/A   Overcast
4:35 PM 57.2 °F - 48.2 °F 72% 29.66 in 10.0 mi WSW 3.5 mph - N/A   Overcast
4:55 PM 55.4 °F - 50.0 °F 82% 29.67 in 7.0 mi Calm Calm - N/A   Overcast
5:15 PM 55.4 °F - 50.0 °F 82% 29.66 in 10.0 mi Calm Calm - 0.01 in   Overcast
5:35 PM 53.6 °F - 51.8 °F 94% 29.67 in 7.0 mi North 3.5 mph - 0.05 in   Overcast
5:55 PM 53.6 °F - 53.6 °F 100% 29.68 in 5.0 mi Calm Calm - 0.09 in   Overcast
6:15 PM 53.6 °F - 53.6 °F 100% 29.68 in 5.0 mi Calm Calm - 0.03 in   Overcast
6:35 PM 53.6 °F - 53.6 °F 100% 29.68 in 7.0 mi Calm Calm - 0.06 in   Overcast
6:55 PM 53.6 °F - 53.6 °F 100% 29.68 in 5.0 mi Calm Calm - 0.09 in   Overcast
7:15 PM 53.6 °F - 53.6 °F 100% 29.68 in 7.0 mi SSW 3.5 mph - 0.03 in   Overcast
7:35 PM 53.6 °F - 53.6 °F 100% 29.68 in 4.0 mi SSW 3.5 mph - 0.08 in   Overcast
7:55 PM 53.6 °F - 53.6 °F 100% 29.68 in 7.0 mi SW 5.8 mph - 0.11 in   Overcast
8:15 PM 53.6 °F - 53.6 °F 100% 29.69 in 10.0 mi WSW 3.5 mph - 0.01 in   Overcast
8:35 PM 53.6 °F - 53.6 °F 100% 29.70 in 5.0 mi West 10.4 mph - 0.02 in   Overcast
8:55 PM 53.6 °F - 53.6 °F 100% 29.73 in 10.0 mi WNW 18.4 mph 28.8 mph 0.02 in   Overcast
9:15 PM 48.2 °F - 48.2 °F 100% 29.77 in 10.0 mi WNW 20.7 mph 26.5 mph N/A   Overcast
9:35 PM 48.2 °F - 46.4 °F 93% 29.79 in 10.0 mi WNW 12.7 mph 20.7 mph N/A   Overcast
9:55 PM 46.4 °F 41.1 °F 46.4 °F 100% 29.80 in 10.0 mi WNW 11.5 mph 17.3 mph N/A   Overcast
10:15 PM 46.4 °F 40.4 °F 46.4 °F 100% 29.81 in 10.0 mi WNW 13.8 mph 25.3 mph N/A   Overcast
10:35 PM 46.4 °F 39.5 °F 44.6 °F 93% 29.81 in 10.0 mi WNW 17.3 mph 26.5 mph N/A   Overcast
10:55 PM 46.4 °F 40.4 °F 44.6 °F 93% 29.83 in 10.0 mi WNW 13.8 mph 24.2 mph N/A   Overcast
11:15 PM 46.4 °F 41.9 °F 44.6 °F 93% 29.85 in 10.0 mi WNW 9.2 mph 20.7 mph N/A   Overcast
11:35 PM 46.4 °F 41.9 °F 44.6 °F 93% 29.86 in 10.0 mi WNW 9.2 mph - N/A   Overcast